• In Belarus
  • List of Countries
  • For 7 days
  • Water Temperature
  • Satellite Maps
  • Weather Map
  • Weather Widgets
  • user-avatar
    Login

    Hourly Weather Bansko

    Today, 18 July, Thursday

    Time Temperature Precipitation Wind Pressure Humidity
    00:00 +16°C° 0 mm 1 mps 718 mmHg 82%
    01:00 +16°C° 0 mm 1 mps 717 mmHg 83%
    02:00 +15°C° 0 mm 1 mps 717 mmHg 84%
    03:00 +15°C° 0 mm 1 mps 717 mmHg 85%
    04:00 +15°C° 0 mm 1 mps 717 mmHg 85%
    05:00 +15°C° 0 mm 1 mps 717 mmHg 86%
    06:00 +18°C° 0 mm 1 mps 718 mmHg 81%
    07:00 +19°C° 0 mm 1 mps 718 mmHg 76%
    08:00 +21°C° 0 mm 1 mps 718 mmHg 71%
    09:00 +23°C° 0 mm 1 mps 719 mmHg 65%
    10:00 +25°C° 0 mm 1 mps 719 mmHg 58%
    11:00 +26°C° 0 mm 1 mps 719 mmHg 51%
    12:00 +27°C° 0 mm 1 mps 719 mmHg 49%
    13:00 +28°C° 0 mm 1 mps 719 mmHg 46%
    14:00 +28°C° 0 mm 1 mps 719 mmHg 44%
    15:00 +28°C° 0.1 mm 1 mps 719 mmHg 43%
    16:00 +28°C° 0.1 mm 1 mps 719 mmHg 43%
    17:00 +28°C° 0.1 mm 1 mps 719 mmHg 43%
    18:00 +26°C° 0.1 mm 1 mps 719 mmHg 50%
    19:00 +24°C° 0.1 mm 1 mps 718 mmHg 57%
    20:00 +22°C° 0.1 mm 1 mps 718 mmHg 64%
    21:00 +21°C° 0 mm 1 mps 719 mmHg 66%
    22:00 +20°C° 0 mm 1 mps 719 mmHg 69%
    23:00 +19°C° 0 mm 1 mps 719 mmHg 71%

    Tomorrow, 19 July, Friday

    Time Temperature Precipitation Wind Pressure Humidity
    00:00 +19°C° 0 mm 1 mps 720 mmHg 73%
    01:00 +19°C° 0 mm 1 mps 720 mmHg 75%
    02:00 +18°C° 0 mm 1 mps 720 mmHg 77%
    03:00 +18°C° 0 mm 1 mps 720 mmHg 77%
    04:00 +18°C° 0 mm 1 mps 720 mmHg 78%
    05:00 +16°C° 0 mm 0 mps 720 mmHg 78%
    06:00 +18°C° 0 mm 0 mps 720 mmHg 73%
    07:00 +20°C° 0 mm 0 mps 721 mmHg 69%
    08:00 +21°C° 0 mm 0 mps 721 mmHg 64%
    09:00 +23°C° 0.3 mm 0 mps 721 mmHg 61%
    10:00 +24°C° 0.3 mm 0 mps 722 mmHg 57%
    11:00 +28°C° 0.3 mm 1 mps 722 mmHg 54%
    12:00 +29°C° 0.6 mm 1 mps 722 mmHg 52%
    13:00 +29°C° 0.6 mm 1 mps 722 mmHg 50%
    14:00 +30°C° 0.6 mm 1 mps 721 mmHg 48%
    15:00 +29°C° 0.7 mm 1 mps 721 mmHg 50%
    16:00 +29°C° 0.7 mm 1 mps 721 mmHg 52%
    17:00 +28°C° 0.7 mm 1 mps 721 mmHg 55%
    18:00 +26°C° 0.5 mm 1 mps 721 mmHg 64%
    19:00 +23°C° 0.5 mm 1 mps 721 mmHg 73%
    20:00 +21°C° 0.5 mm 1 mps 721 mmHg 82%
    21:00 +21°C° 0.1 mm 1 mps 721 mmHg 81%
    22:00 +20°C° 0.1 mm 1 mps 721 mmHg 80%
    23:00 +20°C° 0.1 mm 1 mps 722 mmHg 79%

    Day after tomorrow, 20 July, Saturday

    Time Temperature Precipitation Wind Pressure Humidity
    00:00 +19°C° 0 mm 1 mps 722 mmHg 80%
    01:00 +19°C° 0 mm 1 mps 722 mmHg 80%
    02:00 +18°C° 0 mm 1 mps 722 mmHg 80%
    03:00 +18°C° 0 mm 1 mps 722 mmHg 81%
    04:00 +18°C° 0 mm 1 mps 722 mmHg 81%
    05:00 +18°C° 0 mm 1 mps 722 mmHg 81%
    06:00 +20°C° 0 mm 1 mps 722 mmHg 77%
    07:00 +21°C° 0 mm 1 mps 723 mmHg 73%
    08:00 +23°C° 0 mm 1 mps 723 mmHg 68%
    09:00 +25°C° 0 mm 1 mps 723 mmHg 62%
    10:00 +27°C° 0 mm 1 mps 724 mmHg 55%
    11:00 +29°C° 0 mm 1 mps 724 mmHg 49%
    12:00 +29°C° 0.2 mm 1 mps 724 mmHg 46%
    13:00 +30°C° 0.2 mm 1 mps 724 mmHg 43%
    14:00 +31°C° 0.2 mm 1 mps 724 mmHg 41%
    15:00 +31°C° 0.1 mm 1 mps 723 mmHg 42%
    16:00 +30°C° 0.1 mm 1 mps 723 mmHg 43%
    17:00 +30°C° 0.1 mm 1 mps 723 mmHg 43%
    18:00 +28°C° 0 mm 1 mps 723 mmHg 50%
    19:00 +26°C° 0 mm 1 mps 723 mmHg 57%
    20:00 +24°C° 0 mm 1 mps 723 mmHg 64%
    21:00 +23°C° 0 mm 1 mps 723 mmHg 67%
    22:00 +22°C° 0 mm 1 mps 724 mmHg 69%
    23:00 +21°C° 0 mm 1 mps 724 mmHg 72%

    21 July, Sunday

    Time Temperature Precipitation Wind Pressure Humidity
    00:00 +21°C° 0 mm 1 mps 724 mmHg 74%
    01:00 +20°C° 0 mm 1 mps 724 mmHg 75%
    02:00 +20°C° 0 mm 1 mps 724 mmHg 76%
    03:00 +19°C° 0 mm 1 mps 724 mmHg 77%
    04:00 +19°C° 0 mm 1 mps 724 mmHg 78%
    05:00 +19°C° 0 mm 1 mps 724 mmHg 78%
    06:00 +21°C° 0 mm 1 mps 724 mmHg 73%
    07:00 +23°C° 0 mm 1 mps 724 mmHg 68%
    08:00 +24°C° 0 mm 1 mps 725 mmHg 62%
    09:00 +26°C° 0 mm 1 mps 725 mmHg 57%
    10:00 +28°C° 0 mm 1 mps 725 mmHg 52%
    11:00 +30°C° 0 mm 1 mps 725 mmHg 47%
    12:00 +30°C° 0 mm 1 mps 725 mmHg 45%
    13:00 +31°C° 0 mm 1 mps 725 mmHg 44%
    14:00 +31°C° 0 mm 2 mps 725 mmHg 42%
    15:00 +31°C° 0 mm 2 mps 724 mmHg 43%
    16:00 +31°C° 0 mm 2 mps 724 mmHg 43%
    17:00 +31°C° 0 mm 2 mps 724 mmHg 43%
    18:00 +29°C° 0 mm 2 mps 724 mmHg 50%
    19:00 +27°C° 0 mm 2 mps 724 mmHg 56%
    20:00 +25°C° 0 mm 2 mps 724 mmHg 62%
    21:00 +24°C° 0 mm 1 mps 724 mmHg 64%
    22:00 +23°C° 0 mm 1 mps 724 mmHg 66%
    23:00 +22°C° 0 mm 1 mps 725 mmHg 69%

    22 July, Monday

    Time Temperature Precipitation Wind Pressure Humidity
    00:00 +22°C° 0 mm 1 mps 724 mmHg 70%
    01:00 +21°C° 0 mm 1 mps 724 mmHg 72%
    02:00 +21°C° 0 mm 1 mps 724 mmHg 73%
    03:00 +20°C° 0 mm 1 mps 724 mmHg 74%
    04:00 +20°C° 0 mm 1 mps 724 mmHg 75%
    05:00 +20°C° 0 mm 1 mps 724 mmHg 76%
    06:00 +22°C° 0 mm 1 mps 724 mmHg 72%
    07:00 +24°C° 0 mm 1 mps 724 mmHg 67%
    08:00 +25°C° 0 mm 1 mps 724 mmHg 62%
    09:00 +27°C° 0 mm 1 mps 725 mmHg 57%
    10:00 +29°C° 0 mm 2 mps 725 mmHg 51%
    11:00 +31°C° 0 mm 2 mps 725 mmHg 46%
    12:00 +31°C° 0 mm 2 mps 725 mmHg 45%
    13:00 +32°C° 0 mm 2 mps 724 mmHg 44%
    14:00 +32°C° 0 mm 2 mps 724 mmHg 43%
    15:00 +32°C° 0 mm 2 mps 724 mmHg 45%
    16:00 +32°C° 0 mm 2 mps 723 mmHg 46%
    17:00 +32°C° 0 mm 2 mps 723 mmHg 48%
    18:00 +30°C° 0 mm 2 mps 723 mmHg 55%
    19:00 +28°C° 0 mm 2 mps 723 mmHg 61%
    20:00 +26°C° 0 mm 2 mps 722 mmHg 68%
    21:00 +25°C° 0 mm 2 mps 722 mmHg 68%
    22:00 +24°C° 0 mm 2 mps 722 mmHg 69%
    23:00 +23°C° 0 mm 1 mps 723 mmHg 70%

    23 July, Tuesday

    Time Temperature Precipitation Wind Pressure Humidity
    00:00 +23°C° 0 mm 1 mps 722 mmHg 71%
    01:00 +22°C° 0 mm 1 mps 722 mmHg 72%
    02:00 +22°C° 0 mm 1 mps 722 mmHg 73%
    03:00 +21°C° 0 mm 1 mps 722 mmHg 75%
    04:00 +21°C° 0 mm 1 mps 722 mmHg 77%
    05:00 +21°C° 0 mm 1 mps 721 mmHg 78%
    06:00 +22°C° 0 mm 1 mps 722 mmHg 74%
    07:00 +24°C° 0 mm 1 mps 722 mmHg 69%
    08:00 +26°C° 0 mm 2 mps 722 mmHg 64%
    09:00 +27°C° 0.1 mm 2 mps 722 mmHg 59%
    10:00 +29°C° 0.1 mm 3 mps 722 mmHg 54%
    11:00 +30°C° 0.1 mm 3 mps 722 mmHg 49%
    12:00 +32°C° 0.2 mm 4 mps 722 mmHg 48%
    13:00 +32°C° 0.2 mm 4 mps 721 mmHg 47%
    14:00 +33°C° 0.2 mm 4 mps 721 mmHg 45%
    15:00 +32°C° 0.1 mm 4 mps 721 mmHg 47%
    16:00 +32°C° 0.1 mm 4 mps 721 mmHg 49%
    17:00 +30°C° 0.1 mm 4 mps 720 mmHg 51%
    18:00 +28°C° 0.1 mm 3 mps 720 mmHg 56%
    19:00 +26°C° 0.1 mm 3 mps 720 mmHg 62%
    20:00 +24°C° 0.1 mm 2 mps 720 mmHg 68%
    21:00 +23°C° 0 mm 2 mps 720 mmHg 70%
    22:00 +22°C° 0 mm 1 mps 720 mmHg 72%
    23:00 +21°C° 0 mm 1 mps 721 mmHg 74%
    Show more